PST,Max TemperatureF,Mean TemperatureF,Min TemperatureF,Max Dew PointF,MeanDew PointF,Min DewpointF,Max Humidity, Mean Humidity, Min Humidity, Max Sea Level PressureIn, Mean Sea Level PressureIn, Min Sea Level PressureIn, Max VisibilityMiles, Mean VisibilityMiles, Min VisibilityMiles, Max Wind SpeedMPH, Mean Wind SpeedMPH, Max Gust SpeedMPH,PrecipitationIn, CloudCover, Events, WindDirDegrees
2013-12-1,75,58,40,48,42,38,96,63,29,30.33,30.26,30.20,10,10,9,8,2,26,0.00,0,,261
2013-12-2,64,52,40,50,44,37,93,72,51,30.22,30.10,30.01,10,10,10,10,3,38,0.00,0,,287
2013-12-3,60,48,35,52,43,31,100,70,40,30.00,29.92,29.85,10,6,0,14,4,18,0.01,5,Fog-Rain,289
2013-12-4,54,41,28,30,26,20,82,54,26,30.09,30.03,29.96,10,10,10,10,3,16,0.00,0,,252
2013-12-5,52,39,26,31,23,18,78,52,26,30.19,30.14,30.08,10,10,9,9,3,16,0.00,0,,294
2013-12-6,53,40,27,50,34,22,86,65,44,30.22,30.13,29.98,10,10,10,23,5,31,0.06,4,Rain,197
2013-12-7,52,41,29,52,35,24,100,68,35,30.25,30.09,29.93,10,10,2,23,6,33,0.18,3,Rain,263
2013-12-8,49,38,27,30,25,20,85,61,36,30.32,30.26,30.20,10,10,8,15,4,18,0.00,0,,33
2013-12-9,56,41,25,25,21,15,75,48,20,30.40,30.36,30.32,10,10,10,25,4,28,0.00,0,,35
2013-12-10,62,45,28,26,22,12,72,44,15,30.38,30.26,30.18,10,10,10,17,2,16,0.00,0,,50
2013-12-11,66,49,32,33,26,20,70,44,18,30.22,30.18,30.14,10,10,10,9,3,16,0.00,0,,18
2013-12-12,64,47,30,36,29,22,78,49,20,30.26,30.22,30.17,10,10,9,9,2,12,0.00,0,,275
2013-12-13,61,47,32,40,34,29,89,66,42,30.33,30.28,30.24,10,10,10,8,2,40,0.00,0,,299
2013-12-14,70,52,33,35,32,30,82,53,23,30.37,30.32,30.27,10,10,10,9,2,10,0.00,0,,67
2013-12-15,73,53,33,36,31,29,76,48,19,30.33,30.26,30.20,10,10,9,10,2,22,0.00,0,,65
2013-12-16,77,60,42,34,29,25,53,34,14,30.18,30.14,30.09,10,10,10,20,3,28,0.00,0,,69
2013-12-17,75,58,41,44,34,29,66,43,20,30.15,30.09,30.02,10,10,4,9,2,20,0.00,0,,41
2013-12-18,53,50,46,49,45,41,89,78,66,30.02,29.93,29.82,10,8,2,12,2,28,T,6,Rain,255
2013-12-19,61,50,39,42,34,26,96,63,29,29.93,29.82,29.74,10,10,9,12,3,25,0.00,1,,302
2013-12-20,59,47,35,35,24,9,64,41,17,30.01,29.98,29.93,10,10,10,10,3,17,0.00,0,,266
2013-12-21,61,48,34,41,31,21,82,57,32,30.09,30.02,29.98,10,10,10,7,3,22,0.00,0,,299
2013-12-22,65,50,35,49,43,35,93,66,39,30.31,30.25,30.10,10,6,0,10,2,21,0.00,3,Fog,301
2013-12-23,69,53,37,48,40,35,100,64,28,30.38,30.33,30.30,10,9,0,9,3,24,0.00,0,Fog,313
2013-12-24,74,56,38,40,36,33,76,51,25,30.31,30.25,30.18,10,10,9,8,2,22,0.00,0,,301
2013-12-25,76,58,39,37,34,32,70,46,21,30.25,30.21,30.17,10,10,10,20,4,66,0.00,0,,51
2013-12-26,78,58,38,36,34,30,73,46,18,30.23,30.19,30.13,10,10,10,8,2,23,0.00,0,,78
2013-12-27,73,56,38,37,32,28,62,41,20,30.20,30.16,30.11,10,10,10,9,1,26,0.00,0,,104
2013-12-28,70,52,34,39,32,29,76,51,25,30.12,30.07,30.01,10,10,9,8,2,9,0.00,0,,281
2013-12-29,73,53,32,30,26,16,70,41,12,30.17,30.12,30.08,10,10,10,13,4,16,0.00,0,,342
2013-12-30,67,51,35,33,27,24,64,42,20,30.26,30.22,30.18,10,10,10,10,3,26,0.00,0,,260
2013-12-31,66,49,32,45,31,24,77,51,24,30.27,30.20,30.14,10,10,10,8,2,20,0.00,0,,299